Weather History for Harvey, ND

Change the Weather History Date:

Tuesday, November 20, 2012

  Actual Average (KRUG) Record (KRUG)
Temperature  
Mean Temperature 34 °F -  
Max Temperature 42 °F 31 °F 56 °F (1962)
Min Temperature 26 °F 13 °F -17 °F (1978)
Degree Days  
Heating Degree Days 31    
Moisture  
Dew Point 31 °F    
Average Humidity 84    
Maximum Humidity 100    
Minimum Humidity 70    
Precipitation  
Precipitation 0.00 in - - ()
Sea Level Pressure  
Sea Level Pressure 29.91 in    
Wind  
Wind Speed 9 mph (SSW)    
Max Wind Speed 15 mph    
Max Gust Speed 21 mph    
Visibility 10 miles    
Events      
Averages and records for this station are not official NWS values.
T = Trace of Precipitation, MM = Missing Value Source: NWS Daily Summary

Daily Weather History Graph

Daily Weather History Graph

Search for Another Location

Airport:

Trip Planner

Search our weather history database for the weather conditions in past years. The results will help you decide how hot, cold, wet, or windy it might be!

Date:

Astronomy

Nov. 20, 2012 Rise Set
Actual Time 7:53 AM CST 4:56 PM CST
Civil Twilight 7:19 AM CST 5:31 PM CST
Nautical Twilight 6:41 AM CST 6:09 PM CST
Astronomical Twilight 6:04 AM CST 6:45 PM CST
Moon 1:13 PM CST (11/20) No Moon Set
Length of Visible Light 10h 12m
Length of Day
9h 03m
First Quarter, 51% of the Moon is Illuminated
Nov 20
First Quarter
Nov 28
Full
Dec 6
Last Quarter
Dec 13
New
Dec 19
First Quarter

Hourly Weather History & Observations

Time (CST) Temp. Windchill Dew Point Humidity Pressure Visibility Wind Dir Wind Speed Gust Speed Precip Events Conditions
12:15 AM 28.4 °F 21.2 °F 26.6 °F 93% 30.07 in 10.0 mi SE 6.9 mph - N/A   Clear
12:35 AM 28.4 °F 20.4 °F 28.4 °F 100% 30.07 in 10.0 mi SSE 8.1 mph - N/A   Clear
12:55 AM 28.4 °F 21.2 °F 28.4 °F 100% 30.07 in 10.0 mi SSE 6.9 mph - N/A   Clear
1:15 AM 28.4 °F 21.2 °F 28.4 °F 100% 30.07 in 10.0 mi SE 6.9 mph - N/A   Clear
1:35 AM 28.4 °F 21.2 °F 28.4 °F 100% 30.06 in 10.0 mi SE 6.9 mph - N/A   Clear
1:55 AM 26.6 °F 19.1 °F 26.6 °F 100% 30.05 in 10.0 mi SSE 6.9 mph - N/A   Clear
2:15 AM 28.4 °F 21.2 °F 28.4 °F 100% 30.05 in 10.0 mi SSE 6.9 mph - N/A   Clear
2:35 AM 28.4 °F 19.1 °F 28.4 °F 100% 30.03 in 10.0 mi SE 10.4 mph - N/A   Clear
6:15 AM 32.0 °F 24.2 °F 28.4 °F 87% 29.99 in 10.0 mi South 9.2 mph - N/A   Clear
6:35 AM 33.8 °F 25.8 °F 28.4 °F 81% 29.99 in 10.0 mi South 10.4 mph - N/A   Clear
6:55 AM 33.8 °F 25.8 °F 28.4 °F 81% 29.98 in 10.0 mi South 10.4 mph - N/A   Clear
7:15 AM 33.8 °F 25.8 °F 26.6 °F 75% 29.98 in 10.0 mi South 10.4 mph - N/A   Clear
7:35 AM 33.8 °F 25.8 °F 26.6 °F 75% 29.98 in 10.0 mi South 10.4 mph - N/A   Clear
7:55 AM 33.8 °F 24.8 °F 26.6 °F 75% 29.97 in 10.0 mi South 12.7 mph - N/A   Clear
8:15 AM 35.6 °F 26.6 °F 28.4 °F 75% 29.96 in 10.0 mi South 13.8 mph 19.6 mph N/A   Clear
8:35 AM 35.6 °F 26.2 °F 28.4 °F 75% 29.96 in 10.0 mi South 15.0 mph - N/A   Clear
8:55 AM 35.6 °F 27.1 °F 28.4 °F 75% 29.96 in 10.0 mi South 12.7 mph - N/A   Clear
9:15 AM 37.4 °F 29.3 °F 28.4 °F 70% 29.96 in 10.0 mi South 12.7 mph - N/A   Clear
9:35 AM 37.4 °F 29.3 °F 30.2 °F 75% 29.95 in 10.0 mi South 12.7 mph - N/A   Clear
9:55 AM 39.2 °F 31.6 °F 30.2 °F 70% 29.94 in 10.0 mi South 12.7 mph - N/A   Clear
10:15 AM 39.2 °F 30.8 °F 30.2 °F 70% 29.94 in 10.0 mi SSW 15.0 mph 20.7 mph N/A   Clear
10:35 AM 41.0 °F 34.3 °F 32.0 °F 70% 29.95 in 10.0 mi SSW 11.5 mph 18.4 mph N/A   Clear
10:55 AM 41.0 °F 35.2 °F 32.0 °F 70% 29.95 in 10.0 mi SSW 9.2 mph - N/A   Clear
11:15 AM 41.0 °F 35.2 °F 32.0 °F 70% 29.94 in 10.0 mi South 9.2 mph - N/A   Clear
11:35 AM 41.0 °F 33.9 °F 32.0 °F 70% 29.93 in 10.0 mi SSW 12.7 mph 16.1 mph N/A   Clear
11:55 AM 41.0 °F 35.2 °F 32.0 °F 70% 29.92 in 10.0 mi South 9.2 mph - N/A   Clear
12:15 PM 41.0 °F 33.5 °F 32.0 °F 70% 29.90 in 10.0 mi SSW 13.8 mph - N/A   Clear
12:35 PM 41.0 °F 33.9 °F 32.0 °F 70% 29.91 in 10.0 mi SSW 12.7 mph 19.6 mph N/A   Clear
1:15 PM 41.0 °F 33.9 °F 32.0 °F 70% 29.86 in 10.0 mi South 12.7 mph 18.4 mph N/A   Clear
1:35 PM 42.8 °F 37.0 °F 33.8 °F 70% 29.86 in 10.0 mi South 10.4 mph - N/A   Clear
1:55 PM 41.0 °F 37.1 °F 35.6 °F 81% 29.87 in 10.0 mi SW 5.8 mph - N/A   Clear
2:15 PM 41.0 °F 37.1 °F 35.6 °F 81% 29.86 in 10.0 mi SSW 5.8 mph - N/A   Clear
2:35 PM 41.0 °F 37.1 °F 35.6 °F 81% 29.85 in 10.0 mi South 5.8 mph - N/A   Clear
2:55 PM 42.8 °F 39.3 °F 35.6 °F 76% 29.85 in 10.0 mi South 5.8 mph - N/A   Clear
3:15 PM 42.8 °F 38.6 °F 35.6 °F 76% 29.84 in 10.0 mi South 6.9 mph - N/A   Clear
3:35 PM 42.8 °F 38.0 °F 35.6 °F 76% 29.84 in 10.0 mi South 8.1 mph - N/A   Clear
3:55 PM 41.0 °F 36.4 °F 35.6 °F 81% 29.85 in 10.0 mi SW 6.9 mph - N/A   Clear
4:15 PM 37.4 °F 32.8 °F 35.6 °F 93% 29.85 in 10.0 mi WSW 5.8 mph - N/A   Clear
4:35 PM 37.4 °F 32.8 °F 33.8 °F 87% 29.85 in 10.0 mi SW 5.8 mph - N/A   Clear
4:55 PM 37.4 °F 32.8 °F 32.0 °F 81% 29.86 in 10.0 mi West 5.8 mph - N/A   Clear
5:15 PM 35.6 °F 30.7 °F 32.0 °F 87% 29.86 in 10.0 mi SW 5.8 mph - N/A   Clear
5:35 PM 35.6 °F 29.9 °F 32.0 °F 87% 29.86 in 10.0 mi SSW 6.9 mph - N/A   Clear
5:55 PM 35.6 °F 28.6 °F 32.0 °F 87% 29.86 in 10.0 mi WSW 9.2 mph - N/A   Clear
6:15 PM 35.6 °F 29.9 °F 32.0 °F 87% 29.86 in 10.0 mi SW 6.9 mph - N/A   Clear
6:35 PM 35.6 °F 30.7 °F 32.0 °F 87% 29.85 in 10.0 mi SW 5.8 mph - N/A   Clear
6:55 PM 35.6 °F 29.2 °F 32.0 °F 87% 29.85 in 10.0 mi SW 8.1 mph - N/A   Clear
7:15 PM 35.6 °F 30.7 °F 32.0 °F 87% 29.85 in 10.0 mi SW 5.8 mph - N/A   Clear
7:35 PM 35.6 °F 31.7 °F 32.0 °F 87% 29.85 in 10.0 mi WSW 4.6 mph - N/A   Clear
7:55 PM 35.6 °F 30.7 °F 32.0 °F 87% 29.85 in 10.0 mi SW 5.8 mph - N/A   Clear
8:15 PM 33.8 °F 30.8 °F 32.0 °F 93% 29.84 in 10.0 mi SW 3.5 mph - N/A   Clear
8:35 PM 33.8 °F 26.4 °F 32.0 °F 93% 29.84 in 10.0 mi SW 9.2 mph - N/A   Clear
8:55 PM 35.6 °F 29.2 °F 32.0 °F 87% 29.84 in 10.0 mi SW 8.1 mph - N/A   Clear
9:15 PM 33.8 °F 29.6 °F 32.0 °F 93% 29.85 in 10.0 mi WSW 4.6 mph - N/A   Clear
9:35 PM 32.0 °F 24.8 °F 32.0 °F 100% 29.84 in 10.0 mi WSW 8.1 mph - N/A   Clear
9:55 PM 33.8 °F 27.7 °F 32.0 °F 93% 29.85 in 10.0 mi WSW 6.9 mph - N/A   Clear
10:15 PM 32.0 °F 24.8 °F 32.0 °F 100% 29.84 in 10.0 mi WSW 8.1 mph - N/A   Clear
10:35 PM 33.8 °F 26.4 °F 32.0 °F 93% 29.85 in 10.0 mi West 9.2 mph - N/A   Clear
10:55 PM 35.6 °F 28.0 °F 32.0 °F 87% 29.85 in 10.0 mi WSW 10.4 mph - N/A   Clear
11:15 PM 32.0 °F 24.2 °F 32.0 °F 100% 29.85 in 10.0 mi WSW 9.2 mph - N/A   Clear
11:35 PM 32.0 °F 24.2 °F 32.0 °F 100% 29.85 in 10.0 mi WSW 9.2 mph - N/A   Clear
11:55 PM 33.8 °F 27.0 °F 32.0 °F 93% 29.85 in 10.0 mi WSW 8.1 mph - N/A   Clear